Weather History for Kotzebue, AK

Change the Weather History Date:

Sunday, October 20, 2013

  Actual Average Record
Temperature  
Mean Temperature 38 °F 22 °F  
Max Temperature 40 °F 26 °F 44 °F (1938)
Min Temperature 35 °F 17 °F -7 °F (1970)
Degree Days  
Heating Degree Days 27 43  
Month to date heating degree days 576 746  
Since 1 July heating degree days 1932 2164  
Cooling Degree Days 0    
Month to date cooling degree days 0  
Year to date cooling degree days 13  
Moisture  
Dew Point 37 °F    
Average Humidity 0    
Maximum Humidity 0    
Minimum Humidity 0    
Precipitation  
Precipitation 0.03 in 0.03 in 0.58 in (1941)
Month to date precipitation 1.36 0.75  
Year to date precipitation 9.84 9.21  
Snow  
Snow 0.00 in 0.20 in 6.00 in (1941)
Month to date snowfall 0.3 3.4  
Since 1 July snowfall 0.7 4.2  
Since 1 September snowfall 0.7 4.2  
Snow Depth 0.00 in    
Sea Level Pressure  
Sea Level Pressure 29.43 in    
Wind  
Wind Speed 15 mph (SE)    
Max Wind Speed 25 mph    
Max Gust Speed 30 mph    
Visibility 10 miles    
Events Rain    
T = Trace of Precipitation, MM = Missing Value Source: NWS Daily Summary

Daily Weather History Graph

Daily Weather History Graph

Search for Another Location

Airport:

Trip Planner

Search our weather history database for the weather conditions in past years. The results will help you decide how hot, cold, wet, or windy it might be!

Date:

Astronomy

Oct. 20, 2013 Rise Set
Actual Time 10:09 AM AKDT 6:59 PM AKDT
Civil Twilight 9:13 AM AKDT 7:55 PM AKDT
Nautical Twilight 8:11 AM AKDT 8:56 PM AKDT
Astronomical Twilight 7:09 AM AKDT 9:58 PM AKDT
Moon 7:12 PM AKDT 12:59 PM AKDT
Length of Visible Light 10h 41m
Length of Day
8h 49m
Waning Gibbous, 96% of the Moon is Illuminated
Oct 20
Waning Gibbous
Oct 26
Last Quarter
Nov 3
New
Nov 9
First Quarter
Nov 17
Full

Hourly Weather History & Observations

Time (AKDT) Temp. Windchill Dew Point Humidity Pressure Visibility Wind Dir Wind Speed Gust Speed Precip Events Conditions
12:09 AM 39.2 °F 31.2 °F 37.4 °F 93% 29.28 in 10.0 mi ESE 13.8 mph - 0.01 in Rain Light Rain
12:53 AM 39.0 °F 31.0 °F 37.9 °F 96% 29.29 in 10.0 mi ESE 13.8 mph - 0.01 in   Mostly Cloudy
1:08 AM 39.2 °F 31.2 °F 37.4 °F 93% 29.29 in 10.0 mi ESE 13.8 mph - N/A   Mostly Cloudy
1:53 AM 39.0 °F 31.4 °F 37.0 °F 93% 29.29 in 10.0 mi ESE 12.7 mph - N/A   Scattered Clouds
2:22 AM 39.2 °F 31.2 °F 37.4 °F 93% 29.30 in 10.0 mi ESE 13.8 mph - N/A   Clear
2:48 AM 39.2 °F 30.8 °F 37.4 °F 93% 29.30 in 10.0 mi ESE 15.0 mph - N/A   Mostly Cloudy
2:53 AM 39.0 °F 31.0 °F 37.9 °F 96% 29.30 in 10.0 mi ESE 13.8 mph - N/A   Mostly Cloudy
3:11 AM 39.2 °F 30.8 °F 37.4 °F 93% 29.30 in 10.0 mi ESE 15.0 mph - N/A   Mostly Cloudy
3:41 AM 39.2 °F 31.2 °F 37.4 °F 93% 29.30 in 10.0 mi ESE 13.8 mph - 0.00 in Rain Light Rain
3:53 AM 39.0 °F 31.0 °F 37.9 °F 96% 29.32 in 10.0 mi ESE 13.8 mph - 0.00 in Rain Light Rain
4:53 AM 39.0 °F 31.4 °F 37.9 °F 96% 29.32 in 10.0 mi ESE 12.7 mph - 0.00 in Rain Light Rain
5:53 AM 39.0 °F 32.3 °F 37.9 °F 96% 29.33 in 10.0 mi ESE 10.4 mph - 0.00 in   Overcast
6:12 AM 39.2 °F 32.0 °F 37.4 °F 93% 29.33 in 4.0 mi ESE 11.5 mph - N/A   Mostly Cloudy
6:30 AM 39.2 °F 32.5 °F 39.2 °F 100% 29.33 in 7.0 mi ESE 10.4 mph - N/A   Mostly Cloudy
6:53 AM 39.0 °F 32.3 °F 37.9 °F 96% 29.34 in 10.0 mi ESE 10.4 mph - N/A   Mostly Cloudy
7:53 AM 39.0 °F 32.3 °F 39.0 °F 100% 29.35 in 3.0 mi ESE 10.4 mph 18.4 mph 0.01 in Rain Light Rain
8:53 AM 39.0 °F 31.0 °F 37.9 °F 96% 29.37 in 10.0 mi SE 13.8 mph 21.9 mph 0.01 in   Overcast
9:53 AM 39.0 °F 31.0 °F 37.9 °F 96% 29.40 in 10.0 mi SSE 13.8 mph - 0.00 in Rain Light Rain
10:53 AM 39.9 °F 32.1 °F 37.9 °F 93% 29.42 in 10.0 mi SSE 13.8 mph - 0.00 in   Overcast
11:53 AM 39.0 °F 31.8 °F 37.0 °F 93% 29.44 in 10.0 mi SSE 11.5 mph - N/A   Mostly Cloudy
12:53 PM 39.0 °F 31.0 °F 37.0 °F 93% 29.46 in 10.0 mi SSE 13.8 mph 20.7 mph N/A   Mostly Cloudy
12:56 PM 39.2 °F 30.5 °F 37.4 °F 93% 29.46 in 10.0 mi SE 16.1 mph - N/A   Mostly Cloudy
1:53 PM 39.9 °F 31.4 °F 37.9 °F 93% 29.48 in 10.0 mi SE 16.1 mph 25.3 mph N/A   Overcast
2:16 PM 39.2 °F 30.2 °F 37.4 °F 93% 29.49 in 10.0 mi SSE 17.3 mph 25.3 mph N/A   Overcast
2:53 PM 39.9 °F 31.1 °F 37.0 °F 89% 29.52 in 10.0 mi SSE 17.3 mph 25.3 mph 0.00 in Rain Light Rain
3:49 PM 39.2 °F 30.2 °F 37.4 °F 93% 29.53 in 10.0 mi SSE 17.3 mph 25.3 mph 0.00 in   Overcast
3:53 PM 39.9 °F 30.2 °F 37.0 °F 89% 29.53 in 10.0 mi South 20.7 mph - 0.00 in   Overcast
4:53 PM 39.9 °F 30.2 °F 37.0 °F 89% 29.54 in 10.0 mi SSE 20.7 mph - 0.00 in   Overcast
5:53 PM 39.9 °F 30.5 °F 37.0 °F 89% 29.56 in 10.0 mi SSE 19.6 mph - 0.00 in Rain Light Rain
6:53 PM 39.0 °F 29.9 °F 36.0 °F 89% 29.58 in 10.0 mi SSE 17.3 mph - 0.00 in   Overcast
7:53 PM 39.0 °F 30.3 °F 36.0 °F 89% 29.61 in 10.0 mi SSE 16.1 mph - 0.00 in   Mostly Cloudy
8:53 PM 39.0 °F 29.9 °F 36.0 °F 89% 29.63 in 10.0 mi SSE 17.3 mph - N/A   Clear
9:53 PM 37.0 °F 28.9 °F 35.1 °F 93% 29.64 in 10.0 mi SE 12.7 mph - N/A   Clear
10:53 PM 36.0 °F 26.3 °F 34.0 °F 93% 29.68 in 10.0 mi SE 16.1 mph - 0.01 in   Clear
11:53 PM 36.0 °F 26.3 °F 33.1 °F 89% 29.70 in 10.0 mi SE 16.1 mph - N/A   Clear